Location: Unspecified
(45.3999°N, 88.1269°W)
Time: 23:54:47
(UTC-06:00)

CZ-3 Stage 3 - Visible Passes

Search period start: 21 January 2019 00:00
Search period end: 31 January 2019 00:00
Orbit: 418 x 34775 km, 30.4° (Epoch: 18 January)

Date Brightness Start Highest point End Pass type
(mag) Time Alt. Az. Time Alt. Az. Time Alt. Az.
21 Jan 8.2 05:49:20 10° ENE 10:53:42 21° E 12:43:42 10° ESE visible
21 Jan 9.6 15:15:15 10° WNW 16:54:35 28° W 20:34:49 10° WNW visible
22 Jan 8.0 11:13:02 10° WSW 13:12:58 67° SW 20:15:41 10° SW visible
24 Jan 8.1 05:54:16 10° ENE 10:43:23 21° E 12:31:54 10° ESE visible
24 Jan 9.5 15:04:34 10° WNW 16:43:01 28° W 20:22:09 10° WNW visible
25 Jan 8.0 11:02:53 10° WSW 13:00:21 67° SW 20:04:22 10° SW visible
27 Jan 8.0 05:59:10 10° ENE 10:33:07 20° E 12:20:03 10° ESE visible
27 Jan 9.5 14:53:56 10° WNW 16:31:27 28° W 20:09:23 10° W visible
28 Jan 7.9 10:52:45 10° WSW 12:47:43 67° SW 19:52:59 10° SW visible
30 Jan 7.8 06:03:32 10° ENE 10:22:52 20° E 12:08:08 10° ESE visible
30 Jan 9.4 14:43:21 10° WNW 16:19:54 28° W 19:56:30 10° W visible
